SL-14 DEB, 45315

Orbit data source: Space-Track

SL-14 DEB, 45315 is space debris in LEO originally from a launch on Thu, 15 Aug 1991 UTC launched from the Plesetsk Missile And Space Complex (PKMTR). Debris objects in space refer to the collection of defunct objects orbiting the Earth. Examples of debris include non-operational satellites, rocket bodies, and fragments generated from explosions, collisions, or faulty payload assembly.

Loading next visibility...
Identifier
45315, 1991-056BD
Orbit
LEO
Country
Flag of CISCIS
Related business
Manufacturer
Unknown
Mission
Spacecraft
Bus & Motor
Unknown
Mass
Unknown
Launch date (UTC)
1991-08-15 (35 years ago)
Launch vehicle
Unknown
Launch site
Plesetsk Missile And Space Complex (PKMTR)
Object type
Payload
Rocket body
Debris
Shape & HBR
Unknown shape, 0.1 m
Radar Cross Section
Medium (>0.1 m² and <1 m²)

Expand to show TLE details & history
Last TLE update: 16 hours ago

TLE from 16 hours ago
0 SL-14 DEB
1 45315U 91056BD  26206.46109337  .00000294  00000-0  74430-3 0  9994
2 45315  82.5611 120.1248 0028949  91.6591 268.7847 13.15578592307642
Epoch: 2026-07-25T11:03Z
TLE epoch observation values (Epoch: 2026-07-25T11:03:58.467Z)
Latitude
0.00001°
Longitude
10.95814°
Altitude
1,204.99 km
Speed
7.251 km/s
True Right ascension
08h 00m 29s
True Declination
0° 00' 00"
Sunlit
Object was in daylight at epoch
Visualization orbit readout
Latitude
Unknown
Longitude
Unknown
Altitude
Unknown
Speed
Unknown
Apparent Right ascension
Unknown
Apparent Declination
Unknown
Sunlit
N/A
Visualization observer readout
Local Sidereal Time
16:15:47
Azimuth
Unknown
Elevation
Unknown
Doppler factor
Unknown
Orbital elements
Apogee altitude
1,220.836 km
Perigee altitude
1,176.967 km
Semi-major axis
7,577.039 km
Eccentricity
0.00289
Inclination
82.5611°
RAAN
120.1248°
Arg. of periapsis
91.6591°
True anomaly
268.45307°
Mean anomaly
268.7847°
Eccentric anomaly
268.61888°
Mean motion
3.29074 °/min
Orbital period
109.4 mins
BSTAR
0.0007443
Loading maneuver chart data...
Computing Atmospheric mass density...
Loading historical data...
Loading historical data...
Loading historical data...
Loading historical data...
Loading historical data...
Loading historical data...
Loading historical data...

Documentation

Showing up to 5 results
|